DW6513 Weather Reports


time (UTC)temp
C
wind
direction
speed
KPH
gust
KPH
rain 1hr
cm
rain 24hr
cm
rain mn
cm
humidity
%
barometer
mb
20260506134304 9 100 1.6 8.0 0.00 0.25 0.48 94 1016.0
20260506133303 9 347 1.6 3.2 0.00 0.25 0.48 95 1016.0
20260506132804 9 347 1.6 0.0 0.00 0.33 0.48 95 1015.6
20260506132307 8 145 1.6 4.8 0.00 0.41 0.48 96 1015.6
20260506131804 8 303 1.6 4.8 0.00 0.41 0.48 96 1015.6
20260506131304 8 316 1.6 4.8 0.00 0.41 0.48 96 1015.6
20260506130803 8 303 0.0 4.8 0.00 0.41 0.48 96 1015.5
20260506125803 8 123 1.6 0.0 0.00 0.41 0.48 96 1015.5
20260506125305 8 276 1.6 0.0 0.00 0.41 0.48 96 1015.5
20260506124303 8 310 1.6 3.2 0.00 0.41 0.48 96 1015.5
20260506123304 8 224 1.6 9.7 0.00 0.41 0.48 96 1015.5
20260506122305 8 90 1.6 0.0 0.00 0.41 0.48 96 1015.0
20260506121303 8 313 1.6 4.8 0.00 0.41 0.48 96 1015.0
20260506120303 8 355 1.6 8.0 0.00 0.41 0.48 97 1015.1
20260506115804 8 325 3.2 9.7 0.00 0.41 0.48 97 1015.1
20260506115306 8 347 1.6 9.7 0.00 0.41 0.48 97 1015.1
20260506114810 8 347 1.6 9.7 0.00 0.41 0.48 97 1014.8
20260506114304 8 145 1.6 8.0 0.00 0.41 0.48 96 1014.8
20260506113804 8 145 0.0 0.0 0.00 0.41 0.48 97 1014.8
20260506113303 8 29 0.0 0.0 0.00 0.41 0.48 96 1014.8
20260506112804 8 347 0.0 8.0 0.00 0.48 0.48 96 1014.3
20260506112306 8 132 0.0 8.0 0.00 0.48 0.48 96 1014.3
20260506111804 8 347 0.0 0.0 0.00 0.48 0.48 96 1014.3
20260506111303 8 145 0.0 0.0 0.00 0.48 0.48 96 1014.3
20260506110803 8 123 0.0 3.2 0.00 0.48 0.48 96 1014.1
20260506105804 8 123 1.6 4.8 0.00 0.48 0.48 96 1014.1
20260506104304 8 145 0.0 4.8 0.00 0.48 0.48 97 1013.2
20260506103804 8 145 0.0 0.0 0.00 0.48 0.48 97 1013.2
20260506103303 8 145 1.6 0.0 0.00 0.48 0.48 97 1013.2
20260506102803 8 145 1.6 9.7 0.00 0.48 0.48 97 1013.3
20260506102305 8 134 1.6 8.0 0.00 0.48 0.48 97 1013.3
20260506101304 8 347 0.0 0.0 0.00 0.48 0.48 97 1013.3
20260506100804 8 123 0.0 0.0 0.00 0.48 0.48 97 1012.8
20260506100303 8 10 0.0 0.0 0.00 0.48 0.48 97 1012.8
20260506095804 8 190 0.0 8.0 0.00 0.48 0.48 97 1012.8
20260506094803 8 347 0.0 3.2 0.00 0.48 0.48 97 1013.3
20260506094303 8 16 0.0 0.0 0.00 0.48 0.48 97 1013.3
20260506093303 8 316 0.0 0.0 0.00 0.48 0.48 97 1013.3
20260506092804 8 347 0.0 0.0 0.00 0.48 0.48 98 1013.8
20260506092305 8 83 0.0 0.0 0.00 0.48 0.48 98 1013.8
20260506091804 7 10 0.0 0.0 0.00 0.48 0.48 98 1013.8
20260506091304 7 193 0.0 0.0 0.00 0.48 0.48 98 1013.8
20260506090804 7 325 0.0 0.0 0.00 0.48 0.48 98 1013.2
20260506090304 7 42 0.0 8.0 0.00 0.48 0.48 98 1013.2
20260506085804 7 145 0.0 8.0 0.00 0.48 0.48 98 1013.2
20260506085305 7 347 1.6 0.0 0.00 0.48 0.48 98 1013.2
20260506083803 7 347 0.0 3.2 0.00 0.48 0.48 98 1013.5
20260506083304 7 6 0.0 0.0 0.00 0.48 0.48 98 1013.5
20260506082305 8 347 0.0 3.2 0.00 0.48 0.48 98 1013.2
20260506081804 8 100 0.0 3.2 0.00 0.48 0.48 98 1013.2
20260506080804 8 190 1.6 8.0 0.00 0.48 0.48 98 1012.6
20260506073304 8 240 0.0 0.0 0.00 0.48 0.48 98 1012.6
20260506072804 8 123 0.0 0.0 0.00 0.48 0.48 98 1013.6
20260506072305 8 65 1.6 8.0 0.00 0.48 0.48 98 1013.6
20260506071804 8 325 0.0 0.0 0.00 0.48 0.48 98 1013.6
20260506071304 8 23 1.6 3.2 0.00 0.48 0.48 98 1013.6
20260506070804 8 10 1.6 8.0 0.00 0.48 0.48 98 1013.4
20260506070304 8 0 1.6 8.0 0.00 0.48 0.48 97 1013.4
20260506062305 8 2 0.0 0.0 0.00 0.48 0.48 97 1013.0
20260506061804 8 145 0.0 0.0 0.00 0.48 0.48 97 1013.0
20260506061304 8 145 0.0 0.0 0.00 0.48 0.48 97 1013.0
20260506060804 8 123 0.0 0.0 0.00 0.48 0.48 97 1013.1
20260506060304 8 176 1.6 4.8 0.00 0.48 0.48 97 1013.1
20260506044802 7 10 0.0 0.0 0.00 0.48 0.48 96 1013.1
20260506043803 7 347 0.0 0.0 0.00 0.48 0.48 96 1013.1
20260506043303 7 347 0.0 0.0 0.00 0.48 0.48 96 1013.1
20260506042803 7 123 0.0 0.0 0.00 0.48 0.48 96 1012.9
20260506042305 7 145 1.6 8.0 0.00 0.48 0.48 96 1012.9
20260506041802 7 145 0.0 4.8 0.00 0.48 0.48 95 1012.9
20260506041302 7 190 0.0 0.0 0.00 0.48 0.48 95 1012.9
20260506040803 7 190 1.6 8.0 0.00 0.48 0.48 95 1013.1
20260506034802 7 33 0.0 0.0 0.00 0.48 0.48 95 1013.4
20260506034302 7 3 0.0 3.2 0.00 0.48 0.48 95 1013.4
20260506033802 7 280 0.0 3.2 0.00 0.48 0.48 95 1013.4
20260506033302 7 340 0.0 0.0 0.00 0.48 0.48 95 1013.4
20260506032802 7 347 0.0 0.0 0.00 0.48 0.48 95 1012.6
20260506032305 7 145 0.0 0.0 0.00 0.48 0.48 95 1012.6
20260506031802 7 145 0.0 0.0 0.00 0.48 0.48 95 1012.6
20260506031302 7 115 0.0 0.0 0.00 0.48 0.48 95 1012.6
20260506030802 7 100 0.0 0.0 0.00 0.48 0.48 95 1012.2
20260506030302 7 145 0.0 0.0 0.00 0.48 0.48 95 1012.2
20260506025802 7 100 0.0 0.0 0.00 0.48 0.48 95 1012.2
20260506025305 7 145 0.0 0.0 0.00 0.48 0.48 95 1012.2
20260506024802 7 145 0.0 0.0 0.00 0.48 0.48 95 1012.3
20260506024302 7 72 0.0 3.2 0.00 0.48 0.48 95 1012.3
20260506023803 7 190 0.0 0.0 0.00 0.48 0.48 95 1012.3
20260506023302 7 175 0.0 0.0 0.00 0.48 0.48 95 1012.3
20260506022802 7 347 0.0 0.0 0.00 0.48 0.48 95 1012.3
20260506020802 7 123 0.0 0.0 0.18 0.48 0.48 94 1012.5
20260506020303 7 2 0.0 0.0 0.18 0.48 0.48 95 1012.5
20260506015803 7 145 0.0 0.0 0.18 0.48 0.48 94 1012.5
20260506015305 7 8 0.0 0.0 0.18 0.48 0.48 94 1012.5
20260506014802 7 10 0.0 0.0 0.18 0.48 0.48 94 1012.4
20260506014302 7 135 1.6 8.0 0.18 0.48 0.48 94 1012.4
20260506013302 7 116 0.0 0.0 0.18 0.48 0.48 93 1012.4
20260506012802 7 10 0.0 3.2 0.18 0.48 0.48 93 1011.6
20260506012307 7 330 1.6 0.0 0.18 0.48 0.48 93 1011.6
20260506011302 7 17 1.6 8.0 0.10 0.41 0.41 93 1011.6
20260506005802 7 347 1.6 9.7 0.00 0.33 0.33 93 1011.8
20260506005305 7 357 3.2 8.0 0.00 0.33 0.33 93 1011.8
20260506004802 7 347 4.8 9.7 0.00 0.33 0.33 93 1012.0
20260506004303 7 311 4.8 14.5 0.00 0.33 0.33 93 1012.0
20260506003802 8 280 4.8 11.3 0.00 0.33 0.33 93 1012.0
20260506003302 8 243 1.6 8.0 0.00 0.33 0.33 93 1012.0
20260506002802 8 55 0.0 4.8 0.00 0.33 0.33 93 1010.8
20260506002305 8 347 0.0 0.0 0.00 0.33 0.33 93 1010.8
20260506001802 8 347 3.2 8.0 0.00 0.33 0.33 93 1010.8
20260506001303 8 107 3.2 4.8 0.00 0.33 0.33 93 1010.8
20260506000803 8 303 1.6 8.0 0.00 0.33 0.33 93 1010.7
20260506000302 8 318 0.0 4.8 0.00 0.33 0.33 93 1010.7
20260505235802 8 123 1.6 0.0 0.00 0.33 0.33 93 1010.7
20260505235305 8 347 1.6 8.0 0.00 0.33 0.33 93 1010.7
20260505234802 8 347 3.2 3.2 0.00 0.33 0.33 92 1009.8
20260505234305 10 347 0.0 0.0 0.00 0.33 0.33 88 1010.0
20260505233304 10 0 0.0 0.0 0.00 0.33 0.33 88 1010.0
20260505223803 10 190 1.6 4.8 0.00 0.33 0.33 87 1010.0
20260505222802 10 77 1.6 9.7 0.00 0.33 0.33 87 1009.5
20260505221803 10 145 1.6 0.0 0.00 0.33 0.33 88 1009.5
20260505221303 9 325 3.2 8.0 0.00 0.33 0.33 88 1009.5
20260505220803 9 325 3.2 8.0 0.00 0.33 0.33 87 1009.9
20260505220303 9 75 3.2 9.7 0.00 0.33 0.33 87 1009.9
20260505215305 9 318 1.6 8.0 0.00 0.33 0.33 87 1009.9
20260505214802 9 123 1.6 0.0 0.00 0.33 0.33 87 1009.6
20260505213802 10 145 0.0 0.0 0.00 0.33 0.33 87 1009.6
20260505213302 10 276 1.6 4.8 0.00 0.33 0.33 88 1009.6
20260505212803 10 303 1.6 4.8 0.00 0.33 0.33 89 1010.3
20260505212305 9 347 1.6 8.0 0.00 0.33 0.33 87 1010.3
20260505211802 9 325 3.2 0.0 0.00 0.33 0.33 87 1010.3
20260505211303 9 356 4.8 9.7 0.00 0.33 0.33 87 1010.3
20260505210302 9 347 3.2 8.0 0.00 0.33 0.33 86 1010.8
20260505205305 9 256 4.8 14.5 0.00 0.33 0.33 85 1010.8
20260505204802 9 303 4.8 14.5 0.00 0.33 0.33 84 1010.4
20260505204303 9 6 4.8 11.3 0.00 0.33 0.33 83 1010.4
20260505203803 10 325 4.8 8.0 0.00 0.33 0.33 82 1010.4
20260505203302 10 340 3.2 12.9 0.00 0.33 0.33 82 1010.4
20260505202802 10 303 1.6 12.9 0.00 0.33 0.33 82 1011.0
20260505202306 10 123 1.6 8.0 0.00 0.33 0.33 82 1011.0
20260505201803 10 145 1.6 0.0 0.00 0.33 0.33 81 1011.0
20260505201302 10 331 3.2 4.8 0.00 0.33 0.33 80 1011.0
20260505200803 10 10 4.8 8.0 0.00 0.33 0.33 79 1011.0
20260505200302 10 347 4.8 8.0 0.00 0.33 0.33 78 1011.0
20260505195803 10 77 9.7 8.0 0.00 0.33 0.33 78 1011.0
20260505195305 10 347 11.3 24.1 0.00 0.33 0.33 78 1011.0
20260505194803 10 325 9.7 12.9 0.00 0.33 0.33 78 1011.0
20260505194302 10 186 9.7 20.9 0.00 0.33 0.33 77 1011.0
20260505193803 10 347 9.7 20.9 0.00 0.33 0.33 77 1011.0
20260505192803 11 257 3.2 25.7 0.00 0.33 0.33 75 1010.1
20260505192305 11 331 3.2 8.0 0.00 0.33 0.33 74 1010.1
20260505191803 11 167 4.8 8.0 0.00 0.41 0.33 74 1010.1
20260505191303 11 234 9.7 12.9 0.00 0.41 0.33 73 1010.1
20260505190803 11 347 8.0 16.1 0.00 0.41 0.33 72 1010.0
20260505190302 12 243 3.2 16.1 0.00 0.41 0.33 72 1010.0
20260505185305 12 53 3.2 4.8 0.00 0.41 0.33 74 1010.0
20260505184802 12 190 3.2 3.2 0.00 0.41 0.33 74 1010.4
20260505184302 12 58 3.2 12.9 0.00 0.41 0.33 74 1010.4
20260505183803 12 303 1.6 9.7 0.00 0.41 0.33 74 1010.4
20260505183303 12 340 1.6 9.7 0.00 0.41 0.33 74 1010.4
20260505182803 12 257 1.6 3.2 0.00 0.41 0.33 75 1011.0
20260505182305 11 232 3.2 8.0 0.00 0.41 0.33 75 1011.0
20260505181302 11 347 8.0 19.3 0.00 0.41 0.33 74 1011.0
20260505180303 12 359 8.0 20.9 0.00 0.41 0.33 74 1010.8
20260505175803 12 10 6.4 14.5 0.00 0.41 0.33 73 1010.8
20260505175305 12 336 4.8 14.5 0.00 0.41 0.33 73 1010.8
20260505174803 12 347 3.2 9.7 0.00 0.41 0.33 73 1010.5
20260505174303 12 301 1.6 9.7 0.00 0.41 0.33 73 1010.5
20260505173802 12 190 1.6 4.8 0.00 0.41 0.33 72 1010.5
20260505173303 12 123 1.6 0.0 0.00 0.41 0.33 72 1010.5
20260505172802 12 190 3.2 0.0 0.00 0.41 0.33 70 1010.3
20260505172305 12 10 3.2 9.7 0.00 0.41 0.33 70 1010.3
20260505171802 13 257 1.6 9.7 0.00 0.41 0.33 70 1010.3
20260505171303 13 271 1.6 4.8 0.00 0.41 0.33 71 1010.3
20260505170803 13 123 1.6 3.2 0.00 0.41 0.33 70 1009.8
20260505170303 13 208 1.6 0.0 0.00 0.41 0.33 69 1009.8
20260505165803 13 303 1.6 8.0 0.00 0.41 0.33 69 1009.8
20260505165306 13 208 0.0 8.0 0.00 0.41 0.33 69 1009.8
20260505164803 13 145 1.6 0.0 0.00 0.41 0.33 68 1010.0
20260505163302 13 160 1.6 9.7 0.00 0.41 0.33 68 1010.0
20260505162803 13 347 1.6 3.2 0.00 0.41 0.33 68 1010.3
20260505162305 13 142 1.6 4.8 0.00 0.41 0.33 69 1010.3
20260505161802 13 347 1.6 4.8 0.00 0.41 0.33 68 1010.3
20260505161303 13 258 1.6 0.0 0.00 0.41 0.33 68 1010.3
20260505160803 13 145 3.2 8.0 0.00 0.41 0.33 69 1009.8
20260505160303 13 103 3.2 11.3 0.00 0.41 0.33 69 1009.8
20260505153303 13 121 3.2 12.9 0.00 0.41 0.33 73 1009.6
20260505152803 13 325 1.6 12.9 0.00 0.41 0.33 76 1009.4
20260505152305 13 167 3.2 4.8 0.00 0.41 0.33 77 1009.4
20260505151803 12 33 4.8 12.9 0.00 0.41 0.33 76 1009.4
20260505151303 12 334 3.2 12.9 0.00 0.41 0.33 77 1009.4
20260505150803 12 145 3.2 11.3 0.00 0.41 0.33 78 1009.7
20260505150302 12 116 3.2 4.8 0.00 0.41 0.33 78 1009.7
20260505140304 11 210 1.6 11.3 0.00 0.41 0.33 91 1009.3